Year,Month,Day,Hour,Minute,Value (Times are PST for temperature in C)
2014,10,18,00,00,13.80
2014,10,18,00,01,13.70
2014,10,18,00,02,13.70
2014,10,18,00,03,13.70
2014,10,18,00,04,13.70
2014,10,18,00,05,13.70
2014,10,18,00,06,13.80
2014,10,18,00,07,13.80
2014,10,18,00,08,13.80
2014,10,18,00,09,13.80
2014,10,18,00,10,13.80
2014,10,18,00,11,13.80
2014,10,18,00,12,13.80
2014,10,18,00,13,13.70
2014,10,18,00,14,13.70
2014,10,18,00,15,13.70
2014,10,18,00,16,13.70
2014,10,18,00,17,13.70
2014,10,18,00,18,13.70
2014,10,18,00,19,13.70
2014,10,18,00,20,13.70
2014,10,18,00,21,13.80
2014,10,18,00,22,13.80
2014,10,18,00,23,13.80
2014,10,18,00,24,13.80
2014,10,18,00,25,13.90
2014,10,18,00,26,13.90
2014,10,18,00,27,13.90
2014,10,18,00,28,13.90
2014,10,18,00,29,13.90
2014,10,18,00,30,13.90
2014,10,18,00,31,13.90
2014,10,18,00,32,13.90
2014,10,18,00,33,13.90
2014,10,18,00,34,13.90
2014,10,18,00,35,13.90
2014,10,18,00,36,13.90
2014,10,18,00,37,14.00
2014,10,18,00,38,14.00
2014,10,18,00,39,14.10
2014,10,18,00,40,14.10
2014,10,18,00,41,14.10
2014,10,18,00,42,14.10
2014,10,18,00,43,14.10
2014,10,18,00,44,14.10
2014,10,18,00,45,14.10
2014,10,18,00,46,14.00
2014,10,18,00,47,14.00
2014,10,18,00,48,14.00
2014,10,18,00,49,14.00
2014,10,18,00,50,14.00
2014,10,18,00,51,13.90
2014,10,18,00,52,13.90
2014,10,18,00,53,13.90
2014,10,18,00,54,13.90
2014,10,18,00,55,13.90
2014,10,18,00,56,13.90
2014,10,18,00,57,13.90
2014,10,18,00,58,13.80
2014,10,18,00,59,13.80
2014,10,18,01,00,13.80
2014,10,18,01,01,13.80
2014,10,18,01,02,13.80
2014,10,18,01,03,13.70
2014,10,18,01,04,13.70
2014,10,18,01,05,13.70
2014,10,18,01,06,13.70
2014,10,18,01,07,13.70
2014,10,18,01,08,13.70
2014,10,18,01,09,13.70
2014,10,18,01,10,13.60
2014,10,18,01,11,13.60
2014,10,18,01,12,13.60
2014,10,18,01,13,13.60
2014,10,18,01,14,13.60
2014,10,18,01,15,13.60
2014,10,18,01,16,13.50
2014,10,18,01,17,13.50
2014,10,18,01,18,13.50
2014,10,18,01,19,13.50
2014,10,18,01,20,13.50
2014,10,18,01,21,13.50
2014,10,18,01,22,13.40
2014,10,18,01,23,13.40
2014,10,18,01,24,13.40
2014,10,18,01,25,13.40
2014,10,18,01,26,13.40
2014,10,18,01,27,13.40
2014,10,18,01,28,13.40
2014,10,18,01,29,13.40
2014,10,18,01,30,13.40
2014,10,18,01,31,13.40
2014,10,18,01,32,13.40
2014,10,18,01,33,13.40
2014,10,18,01,34,13.40
2014,10,18,01,35,13.40
2014,10,18,01,36,13.40
2014,10,18,01,37,13.40
2014,10,18,01,38,13.40
2014,10,18,01,39,13.40
2014,10,18,01,40,13.40
2014,10,18,01,41,13.40
2014,10,18,01,42,13.40
2014,10,18,01,43,13.50
2014,10,18,01,44,13.50
2014,10,18,01,45,13.50
2014,10,18,01,46,13.60
2014,10,18,01,47,13.60
2014,10,18,01,48,13.60
2014,10,18,01,49,13.60
2014,10,18,01,50,13.60
2014,10,18,01,51,13.60
2014,10,18,01,52,13.60
2014,10,18,01,53,13.50
2014,10,18,01,54,13.50
2014,10,18,01,55,13.40
2014,10,18,01,56,13.40
2014,10,18,01,57,13.30
2014,10,18,01,58,13.30
2014,10,18,01,59,13.30
2014,10,18,02,00,13.30
2014,10,18,02,01,13.30
2014,10,18,02,02,13.30
2014,10,18,02,03,13.30
2014,10,18,02,04,13.30
2014,10,18,02,05,13.30
2014,10,18,02,06,13.30
2014,10,18,02,07,13.30
2014,10,18,02,08,13.30
2014,10,18,02,09,13.30
2014,10,18,02,10,13.30
2014,10,18,02,11,13.30
2014,10,18,02,12,13.30
2014,10,18,02,13,13.30
2014,10,18,02,14,13.40
2014,10,18,02,15,13.40
2014,10,18,02,16,13.40
2014,10,18,02,17,13.40
2014,10,18,02,18,13.50
2014,10,18,02,19,13.50
2014,10,18,02,20,13.60
2014,10,18,02,21,13.60
2014,10,18,02,22,13.60
2014,10,18,02,23,13.60
2014,10,18,02,24,13.60
2014,10,18,02,25,13.60
2014,10,18,02,26,13.60
2014,10,18,02,27,13.60
2014,10,18,02,28,13.60
2014,10,18,02,29,13.60
2014,10,18,02,30,13.60
2014,10,18,02,31,13.60
2014,10,18,02,32,13.60
2014,10,18,02,33,13.60
2014,10,18,02,34,13.50
2014,10,18,02,35,13.50
2014,10,18,02,36,13.40
2014,10,18,02,37,13.40
2014,10,18,02,38,13.40
2014,10,18,02,39,13.40
2014,10,18,02,40,13.40
2014,10,18,02,41,13.40
2014,10,18,02,42,13.30
2014,10,18,02,43,13.30
2014,10,18,02,44,13.20
2014,10,18,02,45,13.20
2014,10,18,02,46,13.10
2014,10,18,02,47,13.10
2014,10,18,02,48,13.10
2014,10,18,02,49,13.10
2014,10,18,02,50,13.10
2014,10,18,02,51,13.10
2014,10,18,02,52,13.10
2014,10,18,02,53,13.10
2014,10,18,02,54,13.10
2014,10,18,02,55,13.20
2014,10,18,02,56,13.20
2014,10,18,02,57,13.20
2014,10,18,02,58,13.30
2014,10,18,02,59,13.30
2014,10,18,03,00,13.30
2014,10,18,03,01,13.40
2014,10,18,03,02,13.40
2014,10,18,03,03,13.40
2014,10,18,03,04,13.40
2014,10,18,03,05,13.30
2014,10,18,03,06,13.30
2014,10,18,03,07,13.30
2014,10,18,03,08,13.30
2014,10,18,03,09,13.30
2014,10,18,03,10,13.30
2014,10,18,03,11,13.30
2014,10,18,03,12,13.30
2014,10,18,03,13,13.30
2014,10,18,03,14,13.30
2014,10,18,03,15,13.30
2014,10,18,03,16,13.30
2014,10,18,03,17,13.40
2014,10,18,03,18,13.40
2014,10,18,03,19,13.40
2014,10,18,03,20,13.40
2014,10,18,03,21,13.40
2014,10,18,03,22,13.40
2014,10,18,03,23,13.40
2014,10,18,03,24,13.40
2014,10,18,03,25,13.40
2014,10,18,03,26,13.50
2014,10,18,03,27,13.50
2014,10,18,03,28,13.50
2014,10,18,03,29,13.50
2014,10,18,03,30,13.50
2014,10,18,03,31,13.50
2014,10,18,03,32,13.50
2014,10,18,03,33,13.40
2014,10,18,03,34,13.30
2014,10,18,03,35,13.30
2014,10,18,03,36,13.20
2014,10,18,03,37,13.20
2014,10,18,03,38,13.10
2014,10,18,03,39,13.10
2014,10,18,03,40,13.00
2014,10,18,03,41,13.00
2014,10,18,03,42,13.00
2014,10,18,03,43,12.90
2014,10,18,03,44,12.90
2014,10,18,03,45,12.90
2014,10,18,03,46,12.90
2014,10,18,03,47,12.90
2014,10,18,03,48,12.90
2014,10,18,03,49,12.80
2014,10,18,03,50,12.80
2014,10,18,03,51,12.80
2014,10,18,03,52,12.80
2014,10,18,03,53,12.70
2014,10,18,03,54,12.70
2014,10,18,03,55,12.70
2014,10,18,03,56,12.60
2014,10,18,03,57,12.60
2014,10,18,03,58,12.60
2014,10,18,03,59,12.60
2014,10,18,04,00,12.50
2014,10,18,04,01,12.50
2014,10,18,04,02,12.50
2014,10,18,04,03,12.50
2014,10,18,04,04,12.40
2014,10,18,04,05,12.40
2014,10,18,04,06,12.40
2014,10,18,04,07,12.40
2014,10,18,04,08,12.40
2014,10,18,04,09,12.30
2014,10,18,04,10,12.30
2014,10,18,04,11,12.30
2014,10,18,04,12,12.30
2014,10,18,04,13,12.30
2014,10,18,04,14,12.30
2014,10,18,04,15,12.30
2014,10,18,04,16,12.30
2014,10,18,04,17,12.30
2014,10,18,04,18,12.30
2014,10,18,04,19,12.30
2014,10,18,04,20,12.30
2014,10,18,04,21,12.30
2014,10,18,04,22,12.30
2014,10,18,04,23,12.30
2014,10,18,04,24,12.30
2014,10,18,04,25,12.30
2014,10,18,04,26,12.40
2014,10,18,04,27,12.40
2014,10,18,04,28,12.40
2014,10,18,04,29,12.50
2014,10,18,04,30,12.60
2014,10,18,04,31,12.60
2014,10,18,04,32,12.70
2014,10,18,04,33,12.70
2014,10,18,04,34,12.70
2014,10,18,04,35,12.80
2014,10,18,04,36,12.80
2014,10,18,04,37,12.80
2014,10,18,04,38,12.90
2014,10,18,04,39,13.00
2014,10,18,04,40,13.00
2014,10,18,04,41,13.10
2014,10,18,04,42,13.10
2014,10,18,04,43,13.10
2014,10,18,04,44,13.10
2014,10,18,04,45,13.00
2014,10,18,04,46,13.00
2014,10,18,04,47,12.90
2014,10,18,04,48,12.90
2014,10,18,04,49,12.80
2014,10,18,04,50,12.80
2014,10,18,04,51,12.70
2014,10,18,04,52,12.70
2014,10,18,04,53,12.60
2014,10,18,04,54,12.60
2014,10,18,04,55,12.50
2014,10,18,04,56,12.50
2014,10,18,04,57,12.40
2014,10,18,04,58,12.40
2014,10,18,04,59,12.30
2014,10,18,05,00,12.30
2014,10,18,05,01,12.30
2014,10,18,05,02,12.30
2014,10,18,05,03,12.30
2014,10,18,05,04,12.30
2014,10,18,05,05,12.30
2014,10,18,05,06,12.30
2014,10,18,05,07,12.30
2014,10,18,05,08,12.30
2014,10,18,05,09,12.20
2014,10,18,05,10,12.20
2014,10,18,05,11,12.20
2014,10,18,05,12,12.20
2014,10,18,05,13,12.20
2014,10,18,05,14,12.20
2014,10,18,05,15,12.20
2014,10,18,05,16,12.20
2014,10,18,05,17,12.20
2014,10,18,05,18,12.20
2014,10,18,05,19,12.20
2014,10,18,05,20,12.20
2014,10,18,05,21,12.20
2014,10,18,05,22,12.20
2014,10,18,05,23,12.20
2014,10,18,05,24,12.20
2014,10,18,05,25,12.20
2014,10,18,05,26,12.10
2014,10,18,05,27,12.10
2014,10,18,05,28,12.10
2014,10,18,05,29,12.00
2014,10,18,05,30,12.00
2014,10,18,05,31,12.00
2014,10,18,05,32,12.00
2014,10,18,05,33,11.90
2014,10,18,05,34,11.90
2014,10,18,05,35,11.90
2014,10,18,05,36,11.90
2014,10,18,05,37,11.90
2014,10,18,05,38,11.80
2014,10,18,05,39,11.80
2014,10,18,05,40,11.80
2014,10,18,05,41,11.80
2014,10,18,05,42,11.80
2014,10,18,05,43,11.80
2014,10,18,05,44,11.80
2014,10,18,05,45,11.70
2014,10,18,05,46,11.70
2014,10,18,05,47,11.70
2014,10,18,05,48,11.70
2014,10,18,05,49,11.70
2014,10,18,05,50,11.70
2014,10,18,05,51,11.60
2014,10,18,05,52,11.60
2014,10,18,05,53,11.60
2014,10,18,05,54,11.60
2014,10,18,05,55,11.60
2014,10,18,05,56,11.60
2014,10,18,05,57,11.50
2014,10,18,05,58,11.50
2014,10,18,05,59,11.60
2014,10,18,06,00,11.60
2014,10,18,06,01,11.60
2014,10,18,06,02,11.60
2014,10,18,06,03,11.60
2014,10,18,06,04,11.60
2014,10,18,06,05,11.60
2014,10,18,06,06,11.60
2014,10,18,06,07,11.60
2014,10,18,06,08,11.60
2014,10,18,06,09,11.60
2014,10,18,06,10,11.60
2014,10,18,06,11,11.60
2014,10,18,06,12,11.60
2014,10,18,06,13,11.60
2014,10,18,06,14,11.60
2014,10,18,06,15,11.60
2014,10,18,06,16,11.60
2014,10,18,06,17,11.50
2014,10,18,06,18,11.50
2014,10,18,06,19,11.50
2014,10,18,06,20,11.50
2014,10,18,06,21,11.50
2014,10,18,06,22,11.50
2014,10,18,06,23,11.50
2014,10,18,06,24,11.50
2014,10,18,06,25,11.50
2014,10,18,06,26,11.50
2014,10,18,06,27,11.50
2014,10,18,06,28,11.50
2014,10,18,06,29,11.50
2014,10,18,06,30,11.50
2014,10,18,06,31,11.50
2014,10,18,06,32,11.50
2014,10,18,06,33,11.50
2014,10,18,06,34,11.40
2014,10,18,06,35,11.40
2014,10,18,06,36,11.40
2014,10,18,06,37,11.40
2014,10,18,06,38,11.40
2014,10,18,06,39,11.40
2014,10,18,06,40,11.40
2014,10,18,06,41,11.50
2014,10,18,06,42,11.50
2014,10,18,06,43,11.50
2014,10,18,06,44,11.50
2014,10,18,06,45,11.50
2014,10,18,06,46,11.50
2014,10,18,06,47,11.50
2014,10,18,06,48,11.50
2014,10,18,06,49,11.40
2014,10,18,06,50,11.40
2014,10,18,06,51,11.40
2014,10,18,06,52,11.40
2014,10,18,06,53,11.40
2014,10,18,06,54,11.40
2014,10,18,06,55,11.40
2014,10,18,06,56,11.40
2014,10,18,06,57,11.40
2014,10,18,06,58,11.40
2014,10,18,06,59,11.40
2014,10,18,07,00,11.40
2014,10,18,07,01,11.40
2014,10,18,07,02,11.40
2014,10,18,07,03,11.40
2014,10,18,07,04,11.40
2014,10,18,07,05,11.40
2014,10,18,07,06,11.40
2014,10,18,07,07,11.40
2014,10,18,07,08,11.40
2014,10,18,07,09,11.40
2014,10,18,07,10,11.40
2014,10,18,07,11,11.40
2014,10,18,07,12,11.40
2014,10,18,07,13,11.40
2014,10,18,07,14,11.40
2014,10,18,07,15,11.40
2014,10,18,07,16,11.40
2014,10,18,07,17,11.40
2014,10,18,07,18,11.40
2014,10,18,07,19,11.40
2014,10,18,07,20,11.40
2014,10,18,07,21,11.40
2014,10,18,07,22,11.40
2014,10,18,07,23,11.40
2014,10,18,07,24,11.40
2014,10,18,07,25,11.40
2014,10,18,07,26,11.40
2014,10,18,07,27,11.40
2014,10,18,07,28,11.40
2014,10,18,07,29,11.40
2014,10,18,07,30,11.40
2014,10,18,07,31,11.40
2014,10,18,07,32,11.40
2014,10,18,07,33,11.40
2014,10,18,07,34,11.40
2014,10,18,07,35,11.40
2014,10,18,07,36,11.40
2014,10,18,07,37,11.40
2014,10,18,07,38,11.40
2014,10,18,07,39,11.40
2014,10,18,07,40,11.40
2014,10,18,07,41,11.40
2014,10,18,07,42,11.40
2014,10,18,07,43,11.40
2014,10,18,07,44,11.40
2014,10,18,07,45,11.40
2014,10,18,07,46,11.40
2014,10,18,07,47,11.40
2014,10,18,07,48,11.40
2014,10,18,07,49,11.40
2014,10,18,07,50,11.40
2014,10,18,07,51,11.40
2014,10,18,07,52,11.40
2014,10,18,07,53,11.40
2014,10,18,07,54,11.40
2014,10,18,07,55,11.40
2014,10,18,07,56,11.40
2014,10,18,07,57,11.40
2014,10,18,07,58,11.40
2014,10,18,07,59,11.40
2014,10,18,08,00,11.40
2014,10,18,08,01,11.40
2014,10,18,08,02,11.40
2014,10,18,08,03,11.40
2014,10,18,08,04,11.40
2014,10,18,08,05,11.40
2014,10,18,08,06,11.40
2014,10,18,08,07,11.40
2014,10,18,08,08,11.40
2014,10,18,08,09,11.40
2014,10,18,08,10,11.40
2014,10,18,08,11,11.40
2014,10,18,08,12,11.40
2014,10,18,08,13,11.40
2014,10,18,08,14,11.40
2014,10,18,08,15,11.40
2014,10,18,08,16,11.40
2014,10,18,08,17,11.40
2014,10,18,08,18,11.50
2014,10,18,08,19,11.40
2014,10,18,08,20,11.40
2014,10,18,08,21,11.40
2014,10,18,08,22,11.50
2014,10,18,08,23,11.50
2014,10,18,08,24,11.50
2014,10,18,08,25,11.50
2014,10,18,08,26,11.60
2014,10,18,08,27,11.60
2014,10,18,08,28,11.60
2014,10,18,08,29,11.60
2014,10,18,08,30,11.60
2014,10,18,08,31,11.60
2014,10,18,08,32,11.60
2014,10,18,08,33,11.60
2014,10,18,08,34,11.70
2014,10,18,08,35,11.70
2014,10,18,08,36,11.70
2014,10,18,08,37,11.70
2014,10,18,08,38,11.70
2014,10,18,08,39,11.70
2014,10,18,08,40,11.70
2014,10,18,08,41,11.70
2014,10,18,08,42,11.70
2014,10,18,08,43,11.70
2014,10,18,08,44,11.70
2014,10,18,08,45,11.70
2014,10,18,08,46,11.70
2014,10,18,08,47,11.80
2014,10,18,08,48,11.80
2014,10,18,08,49,11.80
2014,10,18,08,50,11.80
2014,10,18,08,51,11.80
2014,10,18,08,52,11.80
2014,10,18,08,53,11.80
2014,10,18,08,54,11.90
2014,10,18,08,55,12.00
2014,10,18,08,56,12.10
2014,10,18,08,57,12.20
2014,10,18,08,58,12.30
2014,10,18,08,59,12.30
2014,10,18,09,00,12.40
2014,10,18,09,01,12.50
2014,10,18,09,02,12.50
2014,10,18,09,03,12.60
2014,10,18,09,04,12.60
2014,10,18,09,05,12.70
2014,10,18,09,06,12.80
2014,10,18,09,07,12.80
2014,10,18,09,08,12.90
2014,10,18,09,09,12.90
2014,10,18,09,10,13.00
2014,10,18,09,11,13.00
2014,10,18,09,12,13.10
2014,10,18,09,13,13.10
2014,10,18,09,14,13.20
2014,10,18,09,15,13.30
2014,10,18,09,16,13.30
2014,10,18,09,17,13.30
2014,10,18,09,18,13.30
2014,10,18,09,19,13.30
2014,10,18,09,20,13.30
2014,10,18,09,21,13.40
2014,10,18,09,22,13.40
2014,10,18,09,23,13.40
2014,10,18,09,24,13.40
2014,10,18,09,25,13.40
2014,10,18,09,26,13.40
2014,10,18,09,27,13.50
2014,10,18,09,28,13.50
2014,10,18,09,29,13.40
2014,10,18,09,30,13.40
2014,10,18,09,31,13.40
2014,10,18,09,32,13.40
2014,10,18,09,33,13.40
2014,10,18,09,34,13.40
2014,10,18,09,35,13.40
2014,10,18,09,36,13.40
2014,10,18,09,37,13.40
2014,10,18,09,38,13.40
2014,10,18,09,39,13.40
2014,10,18,09,40,13.40
2014,10,18,09,41,13.40
2014,10,18,09,42,13.30
2014,10,18,09,43,13.30
2014,10,18,09,44,13.30
2014,10,18,09,45,13.30
2014,10,18,09,46,13.30
2014,10,18,09,47,13.40
2014,10,18,09,48,13.40
2014,10,18,09,49,13.40
2014,10,18,09,50,13.40
2014,10,18,09,51,13.40
2014,10,18,09,52,13.40
2014,10,18,09,53,13.40
2014,10,18,09,54,13.40
2014,10,18,09,55,13.50
2014,10,18,09,56,13.50
2014,10,18,09,57,13.50
2014,10,18,09,58,13.40
2014,10,18,09,59,13.40
2014,10,18,10,00,13.40
2014,10,18,10,01,13.40
2014,10,18,10,02,13.40
2014,10,18,10,03,13.40
2014,10,18,10,04,13.40
2014,10,18,10,05,13.40
2014,10,18,10,06,13.40
2014,10,18,10,07,13.40
2014,10,18,10,08,13.30
2014,10,18,10,09,13.40
2014,10,18,10,10,13.40
2014,10,18,10,11,13.40
2014,10,18,10,12,13.40
2014,10,18,10,13,13.40
2014,10,18,10,14,13.40
2014,10,18,10,15,13.40
2014,10,18,10,16,13.40
2014,10,18,10,17,13.40
2014,10,18,10,18,13.40
2014,10,18,10,19,13.40
2014,10,18,10,20,13.40
2014,10,18,10,21,13.40
2014,10,18,10,22,13.40
2014,10,18,10,23,13.40
2014,10,18,10,24,13.40
2014,10,18,10,25,13.40
2014,10,18,10,26,13.40
2014,10,18,10,27,13.40
2014,10,18,10,28,13.40
2014,10,18,10,29,13.40
2014,10,18,10,30,13.40
2014,10,18,10,31,13.40
2014,10,18,10,32,13.40
2014,10,18,10,33,13.40
2014,10,18,10,34,13.40
2014,10,18,10,35,13.50
2014,10,18,10,36,13.50
2014,10,18,10,37,13.50
2014,10,18,10,38,13.60
2014,10,18,10,39,13.60
2014,10,18,10,40,13.60
2014,10,18,10,41,13.60
2014,10,18,10,42,13.60
2014,10,18,10,43,13.60
2014,10,18,10,44,13.60
2014,10,18,10,45,13.60
2014,10,18,10,46,13.60
2014,10,18,10,47,13.60
2014,10,18,10,48,13.60
2014,10,18,10,49,13.60
2014,10,18,10,50,13.60
2014,10,18,10,51,13.60
2014,10,18,10,52,13.60
2014,10,18,10,53,13.60
2014,10,18,10,54,13.70
2014,10,18,10,55,13.70
2014,10,18,10,56,13.70
2014,10,18,10,57,13.70
2014,10,18,10,58,13.70
2014,10,18,10,59,13.70
2014,10,18,11,00,13.60
2014,10,18,11,01,13.60
2014,10,18,11,02,13.60
2014,10,18,11,03,13.60
2014,10,18,11,04,13.50
2014,10,18,11,05,13.50
2014,10,18,11,06,13.40
2014,10,18,11,07,13.40
2014,10,18,11,08,13.40
2014,10,18,11,09,13.30
2014,10,18,11,10,13.30
2014,10,18,11,11,13.30
2014,10,18,11,12,13.30
2014,10,18,11,13,13.20
2014,10,18,11,14,13.20
2014,10,18,11,15,13.20
2014,10,18,11,16,13.20
2014,10,18,11,17,13.20
2014,10,18,11,18,13.20
2014,10,18,11,19,13.10
2014,10,18,11,20,13.10
2014,10,18,11,21,13.10
2014,10,18,11,22,13.10
2014,10,18,11,23,13.10
2014,10,18,11,24,13.10
2014,10,18,11,25,13.10
2014,10,18,11,26,13.10
2014,10,18,11,27,13.10
2014,10,18,11,28,13.10
2014,10,18,11,29,13.10
2014,10,18,11,30,13.10
2014,10,18,11,31,13.20
2014,10,18,11,32,13.20
2014,10,18,11,33,13.20
2014,10,18,11,34,13.30
2014,10,18,11,35,13.30
2014,10,18,11,36,13.40
2014,10,18,11,37,13.40
2014,10,18,11,38,13.40
2014,10,18,11,39,13.50
2014,10,18,11,40,13.50
2014,10,18,11,41,13.50
2014,10,18,11,42,13.60
2014,10,18,11,43,13.60
2014,10,18,11,44,13.60
2014,10,18,11,45,13.60
2014,10,18,11,46,13.60
2014,10,18,11,47,13.60
2014,10,18,11,48,13.60
2014,10,18,11,49,13.60
2014,10,18,11,50,13.60
2014,10,18,11,51,13.60
2014,10,18,11,52,13.60
2014,10,18,11,53,13.50
2014,10,18,11,54,13.50
2014,10,18,11,55,13.50
2014,10,18,11,56,13.50
2014,10,18,11,57,13.40
2014,10,18,11,58,13.40
2014,10,18,11,59,13.40
2014,10,18,12,00,13.50
2014,10,18,12,01,13.50
2014,10,18,12,02,13.50
2014,10,18,12,03,13.50
2014,10,18,12,04,13.60
2014,10,18,12,05,13.60
2014,10,18,12,06,13.60
2014,10,18,12,07,13.70
2014,10,18,12,08,13.70
2014,10,18,12,09,13.70
2014,10,18,12,10,13.80
2014,10,18,12,11,13.80
2014,10,18,12,12,13.80
2014,10,18,12,13,13.80
2014,10,18,12,14,13.90
2014,10,18,12,15,13.90
2014,10,18,12,16,14.00
2014,10,18,12,17,14.00
2014,10,18,12,18,14.10
2014,10,18,12,19,14.10
2014,10,18,12,20,14.20
2014,10,18,12,21,14.20
2014,10,18,12,22,14.20
2014,10,18,12,23,14.30
2014,10,18,12,24,14.30
2014,10,18,12,25,14.30
2014,10,18,12,26,14.30
2014,10,18,12,27,14.40
2014,10,18,12,28,14.40
2014,10,18,12,29,14.40
2014,10,18,12,30,14.50
2014,10,18,12,31,14.50
2014,10,18,12,32,14.50
2014,10,18,12,33,14.60
2014,10,18,12,34,14.60
2014,10,18,12,35,14.60
2014,10,18,12,36,14.60
2014,10,18,12,37,14.60
2014,10,18,12,38,14.60
2014,10,18,12,39,14.60
2014,10,18,12,40,14.60
2014,10,18,12,41,14.60
2014,10,18,12,42,14.60
2014,10,18,12,43,14.50
2014,10,18,12,44,14.60
2014,10,18,12,45,14.60
2014,10,18,12,46,14.60
2014,10,18,12,47,14.60
2014,10,18,12,48,14.50
2014,10,18,12,49,14.50
2014,10,18,12,50,14.50
2014,10,18,12,51,14.50
2014,10,18,12,52,14.50
2014,10,18,12,53,14.50
2014,10,18,12,54,14.50
2014,10,18,12,55,14.40
2014,10,18,12,56,14.40
2014,10,18,12,57,14.40
2014,10,18,12,58,14.40
2014,10,18,12,59,14.40
2014,10,18,13,00,14.40
2014,10,18,13,01,14.40
2014,10,18,13,02,14.40
2014,10,18,13,03,14.40
2014,10,18,13,04,14.40
2014,10,18,13,05,14.40
2014,10,18,13,06,14.40
2014,10,18,13,07,14.40
2014,10,18,13,08,14.40
2014,10,18,13,09,14.40
2014,10,18,13,10,14.30
2014,10,18,13,11,14.40
2014,10,18,13,12,14.30
2014,10,18,13,13,14.40
2014,10,18,13,14,14.30
2014,10,18,13,15,14.30
2014,10,18,13,16,14.30
2014,10,18,13,17,14.30
2014,10,18,13,18,14.30
2014,10,18,13,19,14.30
2014,10,18,13,20,14.30
2014,10,18,13,21,14.30
2014,10,18,13,22,14.30
2014,10,18,13,23,14.30
2014,10,18,13,24,14.30
2014,10,18,13,25,14.30
2014,10,18,13,26,14.30
2014,10,18,13,27,14.40
2014,10,18,13,28,14.40
2014,10,18,13,29,14.50
2014,10,18,13,30,14.50
2014,10,18,13,31,14.50
2014,10,18,13,32,14.50
2014,10,18,13,33,14.50
2014,10,18,13,34,14.50
2014,10,18,13,35,14.50
2014,10,18,13,36,14.50
2014,10,18,13,37,14.50
2014,10,18,13,38,14.50
2014,10,18,13,39,14.50
2014,10,18,13,40,14.50
2014,10,18,13,41,14.50
2014,10,18,13,42,14.40
2014,10,18,13,43,14.40
2014,10,18,13,44,14.40
2014,10,18,13,45,14.40
2014,10,18,13,46,14.50
2014,10,18,13,47,14.50
2014,10,18,13,48,14.60
2014,10,18,13,49,14.60
2014,10,18,13,50,14.60
2014,10,18,13,51,14.60
2014,10,18,13,52,14.60
2014,10,18,13,53,14.60
2014,10,18,13,54,14.60
2014,10,18,13,55,14.60
2014,10,18,13,56,14.50
2014,10,18,13,57,14.50
2014,10,18,13,58,14.40
2014,10,18,13,59,14.40
2014,10,18,14,00,14.40
2014,10,18,14,01,14.40
2014,10,18,14,02,14.40
2014,10,18,14,03,14.40
2014,10,18,14,04,14.40
2014,10,18,14,05,14.30
2014,10,18,14,06,14.30
2014,10,18,14,07,14.30
2014,10,18,14,08,14.30
2014,10,18,14,09,14.30
2014,10,18,14,10,14.40
2014,10,18,14,11,14.40
2014,10,18,14,12,14.40
2014,10,18,14,13,14.50
2014,10,18,14,14,14.50
2014,10,18,14,15,14.50
2014,10,18,14,16,14.50
2014,10,18,14,17,14.50
2014,10,18,14,18,14.60
2014,10,18,14,19,14.70
2014,10,18,14,20,14.70
2014,10,18,14,21,14.80
2014,10,18,14,22,14.80
2014,10,18,14,23,14.80
2014,10,18,14,24,14.80
2014,10,18,14,25,14.90
2014,10,18,14,26,14.90
2014,10,18,14,27,14.90
2014,10,18,14,28,14.90
2014,10,18,14,29,14.90
2014,10,18,14,30,14.90
2014,10,18,14,31,14.90
2014,10,18,14,32,14.90
2014,10,18,14,33,14.90
2014,10,18,14,34,14.90
2014,10,18,14,35,14.90
2014,10,18,14,36,14.90
2014,10,18,14,37,14.90
2014,10,18,14,38,14.90
2014,10,18,14,39,14.90
2014,10,18,14,40,15.00
2014,10,18,14,41,15.00
2014,10,18,14,42,15.00
2014,10,18,14,43,15.00
2014,10,18,14,44,15.00
2014,10,18,14,45,15.00
2014,10,18,14,46,15.10
2014,10,18,14,47,15.10
2014,10,18,14,48,15.10
2014,10,18,14,49,15.10
2014,10,18,14,50,15.10
2014,10,18,14,51,15.20
2014,10,18,14,52,15.20
2014,10,18,14,53,15.20
2014,10,18,14,54,15.20
2014,10,18,14,55,15.10
2014,10,18,14,56,15.10
2014,10,18,14,57,15.10
2014,10,18,14,58,15.20
2014,10,18,14,59,15.20
2014,10,18,15,00,15.20
2014,10,18,15,01,15.20
2014,10,18,15,02,15.20
2014,10,18,15,03,15.20
2014,10,18,15,04,15.30
2014,10,18,15,05,15.30
2014,10,18,15,06,15.30
2014,10,18,15,07,15.30
2014,10,18,15,08,15.30
2014,10,18,15,09,15.20
2014,10,18,15,10,15.20
2014,10,18,15,11,15.20
2014,10,18,15,12,15.20
2014,10,18,15,13,15.20
2014,10,18,15,14,15.20
2014,10,18,15,15,15.20
2014,10,18,15,16,15.20
2014,10,18,15,17,15.10
2014,10,18,15,18,15.10
2014,10,18,15,19,15.10
2014,10,18,15,20,15.10
2014,10,18,15,21,15.10
2014,10,18,15,22,15.10
2014,10,18,15,23,15.10
2014,10,18,15,24,15.10
2014,10,18,15,25,15.10
2014,10,18,15,26,15.10
2014,10,18,15,27,15.10
2014,10,18,15,28,15.10
2014,10,18,15,29,15.10
2014,10,18,15,30,15.10
2014,10,18,15,31,15.10
2014,10,18,15,32,15.10
2014,10,18,15,33,15.10
2014,10,18,15,34,15.20
2014,10,18,15,35,15.20
2014,10,18,15,36,15.20
2014,10,18,15,37,15.20
2014,10,18,15,38,15.20
2014,10,18,15,39,15.20
2014,10,18,15,40,15.20
2014,10,18,15,41,15.20
2014,10,18,15,42,15.20
2014,10,18,15,43,15.20
2014,10,18,15,44,15.20
2014,10,18,15,45,15.30
2014,10,18,15,46,15.30
2014,10,18,15,47,15.30
2014,10,18,15,48,15.30
2014,10,18,15,49,15.30
2014,10,18,15,50,15.30
2014,10,18,15,51,15.30
2014,10,18,15,52,15.30
2014,10,18,15,53,15.30
2014,10,18,15,54,15.30
2014,10,18,15,55,15.30
2014,10,18,15,56,15.30
2014,10,18,15,57,15.30
2014,10,18,15,58,15.30
2014,10,18,15,59,15.30
2014,10,18,16,00,15.30
2014,10,18,16,01,15.30
2014,10,18,16,02,15.30
2014,10,18,16,03,15.30
2014,10,18,16,04,15.30
2014,10,18,16,05,15.40
2014,10,18,16,06,15.40
2014,10,18,16,07,15.40
2014,10,18,16,08,15.40
2014,10,18,16,09,15.40
2014,10,18,16,10,15.40
2014,10,18,16,11,15.40
2014,10,18,16,12,15.40
2014,10,18,16,13,15.40
2014,10,18,16,14,15.40
2014,10,18,16,15,15.40
2014,10,18,16,16,15.40
2014,10,18,16,17,15.40
2014,10,18,16,18,15.40
2014,10,18,16,19,15.40
2014,10,18,16,20,15.40
2014,10,18,16,21,15.40
2014,10,18,16,22,15.40
2014,10,18,16,23,15.40
2014,10,18,16,24,15.40
2014,10,18,16,25,15.40
2014,10,18,16,26,15.40
2014,10,18,16,27,15.40
2014,10,18,16,28,15.40
2014,10,18,16,29,15.40
2014,10,18,16,30,15.40
2014,10,18,16,31,15.50
2014,10,18,16,32,15.50
2014,10,18,16,33,15.40
2014,10,18,16,34,15.40
2014,10,18,16,35,15.40
2014,10,18,16,36,15.40
2014,10,18,16,37,15.40
2014,10,18,16,38,15.40
2014,10,18,16,39,15.40
2014,10,18,16,40,15.40
2014,10,18,16,41,15.40
2014,10,18,16,42,15.30
2014,10,18,16,43,15.40
2014,10,18,16,44,15.30
2014,10,18,16,45,15.30
2014,10,18,16,46,15.30
2014,10,18,16,47,15.30
2014,10,18,16,48,15.30
2014,10,18,16,49,15.30
2014,10,18,16,50,15.30
2014,10,18,16,51,15.30
2014,10,18,16,52,15.30
2014,10,18,16,53,15.30
2014,10,18,16,54,15.30
2014,10,18,16,55,15.30
2014,10,18,16,56,15.20
2014,10,18,16,57,15.30
2014,10,18,16,58,15.30
2014,10,18,16,59,15.30
2014,10,18,17,00,15.30
2014,10,18,17,01,15.30
2014,10,18,17,02,15.30
2014,10,18,17,03,15.30
2014,10,18,17,04,15.30
2014,10,18,17,05,15.30
2014,10,18,17,06,15.30
2014,10,18,17,07,15.20
2014,10,18,17,08,15.20
2014,10,18,17,09,15.30
2014,10,18,17,10,15.30
2014,10,18,17,11,15.30
2014,10,18,17,12,15.30
2014,10,18,17,13,15.30
2014,10,18,17,14,15.30
2014,10,18,17,15,15.30
2014,10,18,17,16,15.30
2014,10,18,17,17,15.30
2014,10,18,17,18,15.30
2014,10,18,17,19,15.30